Погода в Мортке

Россия / Ханты-Мансийский автономный округ - Югра     59°19′52″N   66°01′21″E
темп.,
°C
ветер,
м/с
пор.,
м/с
влажн.,
%
обл.,
%
осадки,
мм/ч
давл.,
гПа
погр.,
м
9 марта, вт
вт923:00−13ююв2697100 0.1 1004215
02:00−13юв3696100 0.2 1002243
05:00−12вюв3796100 0.8 1001304
08:00−10юв1697100 0.7 1001285
11:00−6юз4892100 0.9 1002720
14:00−6зюз5790100 0.4 1003743
17:00−9сз3592100 0.7 1005518
20:00−17сз369776 0.1 1007125
10 марта, ср
ср1023:00−20сз229951 0.1 101020
02:00−22сз121000 0.0 101220
05:00−24ссв121000 0.0 101220
08:00−24всв129943 0.0 101222
11:00−17всв239259 0.0 1012293
14:00−16св3594100 0.0 1011371
17:00−17св4794100 0.1 1010400
20:00−18ссв3896100 0.1 1009343
11 марта, чт
чт1123:00−21ссв4897100 0.2 1009315
02:00−23ссв4896100 0.1 1009279
05:00−26ссв4896100 0.1 1009257
08:00−27ссв4796100 0.0 1009233
11:00−25с4695100 0.0 1009290
14:00−22с469373 0.0 1010428
17:00−23с379284 0.0 1010424
20:00−26ссз3796100 0.0 1012222
12 марта, пт
пт1223:00−30ссз239775 0.0 101338
02:00−31сз22990 0.0 101319
05:00−32з12980 0.0 101319
08:00−30юз22940 0.0 101342
11:00−21ююз369127 0.0 1013263
14:00−16юз489193 0.0 1012502
17:00−13юз499197 0.1 1011611
20:00−12юз4119491 0.1 1012409
13 марта, сб
сб1323:00−11зюз4119395 0.1 1012358
02:00−14зюз499434 0.0 1013243
05:00−15зюз499430 0.0 1014229
08:00−15зюз499413 0.0 1015255
11:00−9зюз489134 0.0 1015370
14:00−5зюз588726 0.0 1016763
17:00−4зюз498763 0.1 1016765
20:00−7зюз4119187 0.0 1016329